| time (UTC) | temp F | wind direction | speed MPH | gust MPH | rain 1hr in | rain 24hr in | rain mn in | humidity % | barometer mb |
| 20260902191517 | 62 | 129 | 2.0 | 14.0 | 0.00 | 0.00 | 0.00 | 55 | 1009.2 |
| 20260902191241 | 62 | 103 | 6.0 | 14.0 | 0.00 | 0.00 | 0.00 | 53 | 1010.7 |
| 20260902191004 | 62 | 109 | 8.0 | 14.0 | 0.00 | 0.00 | 0.00 | 53 | 1009.2 |
| 20260902190740 | 63 | 96 | 6.0 | 15.0 | 0.00 | 0.00 | 0.00 | 53 | 1010.7 |
| 20260902190506 | 62 | 128 | 3.0 | 15.0 | 0.00 | 0.00 | 0.00 | 54 | 1009.2 |
| 20260902190241 | 62 | 102 | 7.0 | 15.0 | 0.00 | 0.00 | 0.00 | 54 | 1010.7 |
| 20260902190012 | 62 | 151 | 9.0 | 15.0 | 0.00 | 0.00 | 0.00 | 55 | 1009.3 |
| 20260902185741 | 62 | 113 | 5.0 | 13.0 | 0.00 | 0.00 | 0.00 | 56 | 1010.7 |
| 20260902185503 | 62 | 104 | 6.0 | 11.0 | 0.00 | 0.00 | 0.00 | 56 | 1009.3 |
| 20260902185241 | 62 | 28 | 4.0 | 13.0 | 0.00 | 0.00 | 0.00 | 57 | 1010.8 |
| 20260902185008 | 61 | 120 | 3.0 | 13.0 | 0.00 | 0.00 | 0.00 | 56 | 1009.3 |
| 20260902184741 | 61 | 117 | 5.0 | 13.0 | 0.00 | 0.00 | 0.00 | 56 | 1010.7 |
| 20260902184516 | 61 | 117 | 7.0 | 13.0 | 0.00 | 0.00 | 0.00 | 56 | 1009.3 |
| 20260902184241 | 61 | 116 | 5.0 | 12.0 | 0.00 | 0.00 | 0.00 | 56 | 1010.7 |
| 20260902184002 | 60 | 141 | 5.0 | 12.0 | 0.00 | 0.00 | 0.00 | 56 | 1009.4 |
| 20260902183740 | 60 | 105 | 5.0 | 11.0 | 0.00 | 0.00 | 0.00 | 56 | 1010.8 |
| 20260902183507 | 60 | 118 | 4.0 | 11.0 | 0.00 | 0.00 | 0.00 | 54 | 1009.4 |
| 20260902183241 | 60 | 136 | 4.0 | 11.0 | 0.00 | 0.00 | 0.00 | 55 | 1010.9 |
| 20260902183015 | 59 | 109 | 4.0 | 10.0 | 0.00 | 0.00 | 0.00 | 57 | 1009.5 |
| 20260902182737 | 60 | 107 | 4.0 | 14.0 | 0.00 | 0.00 | 0.00 | 57 | 1010.9 |
| 20260902182507 | 59 | 115 | 1.0 | 14.0 | 0.00 | 0.00 | 0.00 | 54 | 1009.5 |
| 20260902182237 | 60 | 94 | 4.0 | 14.0 | 0.00 | 0.00 | 0.00 | 54 | 1010.9 |
| 20260902182007 | 59 | 132 | 7.0 | 14.0 | 0.00 | 0.00 | 0.00 | 52 | 1009.6 |
| 20260902181737 | 60 | 116 | 3.0 | 11.0 | 0.00 | 0.00 | 0.00 | 54 | 1011.0 |
| 20260902181512 | 59 | 85 | 4.0 | 13.0 | 0.00 | 0.00 | 0.00 | 56 | 1009.5 |
| 20260902181237 | 60 | 132 | 4.0 | 13.0 | 0.00 | 0.00 | 0.00 | 56 | 1010.9 |
| 20260902181008 | 59 | 93 | 2.0 | 13.0 | 0.00 | 0.00 | 0.00 | 57 | 1009.6 |
| 20260902180737 | 60 | 244 | 3.0 | 13.0 | 0.00 | 0.00 | 0.00 | 57 | 1010.9 |
| 20260902180509 | 59 | 109 | 5.0 | 12.0 | 0.00 | 0.00 | 0.00 | 58 | 1009.6 |
| 20260902180238 | 60 | 104 | 2.0 | 10.0 | 0.00 | 0.00 | 0.00 | 58 | 1010.9 |
| 20260902180016 | 59 | 107 | 3.0 | 9.0 | 0.00 | 0.00 | 0.00 | 58 | 1009.5 |
| 20260902180005 | 59 | 109 | 2.0 | 7.0 | 0.00 | 0.00 | 0.00 | 60 | 1010.9 |
| 20260902175506 | 59 | 121 | 0.0 | 9.0 | 0.00 | 0.00 | 0.00 | 58 | 1009.5 |
| 20260902175006 | 59 | 108 | 1.0 | 9.0 | 0.00 | 0.00 | 0.00 | 58 | 1009.4 |
| 20260902174736 | 59 | 126 | 6.0 | 13.0 | 0.00 | 0.00 | 0.00 | 59 | 1010.5 |
| 20260902174511 | 58 | 103 | 4.0 | 13.0 | 0.00 | 0.00 | 0.00 | 60 | 1009.4 |
| 20260902174233 | 59 | 80 | 7.0 | 13.0 | 0.00 | 0.00 | 0.00 | 62 | 1010.4 |
| 20260902174007 | 58 | 121 | 9.0 | 13.0 | 0.00 | 0.00 | 0.00 | 61 | 1009.3 |
| 20260902173733 | 59 | 114 | 6.0 | 13.0 | 0.00 | 0.00 | 0.00 | 62 | 1010.4 |
| 20260902173507 | 59 | 105 | 7.0 | 13.0 | 0.00 | 0.00 | 0.00 | 60 | 1009.4 |
| 20260902173232 | 59 | 105 | 4.0 | 11.0 | 0.00 | 0.00 | 0.00 | 60 | 1010.8 |
| 20260902173021 | 59 | 117 | 4.0 | 10.0 | 0.00 | 0.00 | 0.00 | 60 | 1009.4 |
| 20260902172733 | 59 | 82 | 2.0 | 10.0 | 0.00 | 0.00 | 0.00 | 60 | 1010.8 |
| 20260902172511 | 59 | 102 | 3.0 | 7.0 | 0.00 | 0.00 | 0.00 | 61 | 1009.4 |
| 20260902172232 | 60 | 244 | 3.0 | 8.0 | 0.00 | 0.00 | 0.00 | 59 | 1010.8 |
| 20260902172009 | 59 | 103 | 1.0 | 8.0 | 0.00 | 0.00 | 0.00 | 59 | 1009.3 |
| 20260902171733 | 59 | 136 | 3.0 | 8.0 | 0.00 | 0.00 | 0.00 | 60 | 1010.7 |
| 20260902171524 | 59 | 109 | 4.0 | 8.0 | 0.00 | 0.00 | 0.00 | 60 | 1009.3 |
| 20260902171232 | 59 | 114 | 3.0 | 8.0 | 0.00 | 0.00 | 0.00 | 60 | 1010.5 |
| 20260902171003 | 58 | 105 | 1.0 | 8.0 | 0.00 | 0.00 | 0.00 | 58 | 1009.3 |
| 20260902170733 | 59 | 117 | 3.0 | 8.0 | 0.00 | 0.00 | 0.00 | 59 | 1010.7 |
| 20260902170507 | 58 | 107 | 3.0 | 8.0 | 0.00 | 0.00 | 0.00 | 60 | 1009.4 |
| 20260902170231 | 58 | 136 | 2.0 | 7.0 | 0.00 | 0.00 | 0.00 | 60 | 1010.5 |
| 20260902170016 | 58 | 177 | 1.0 | 8.0 | 0.00 | 0.00 | 0.00 | 59 | 1009.2 |
| 20260902165730 | 58 | 183 | 2.0 | 8.0 | 0.00 | 0.00 | 0.00 | 60 | 1010.5 |
| 20260902165512 | 58 | 161 | 1.0 | 8.0 | 0.00 | 0.00 | 0.00 | 59 | 1009.3 |
| 20260902165442 | 58 | 108 | 3.0 | 8.0 | 0.00 | 0.00 | 0.00 | 60 | 1010.5 |
| 20260902165008 | 57 | 131 | 1.0 | 10.0 | 0.00 | 0.00 | 0.00 | 60 | 1009.3 |
| 20260902164719 | 58 | 118 | 4.0 | 10.0 | 0.00 | 0.00 | 0.00 | 61 | 1010.7 |
| 20260902164517 | 57 | 124 | 2.0 | 10.0 | 0.00 | 0.00 | 0.00 | 63 | 1009.2 |
| 20260902164213 | 58 | 119 | 3.0 | 10.0 | 0.00 | 0.00 | 0.00 | 63 | 1010.4 |
| 20260902164010 | 57 | 137 | 3.0 | 8.0 | 0.00 | 0.00 | 0.00 | 62 | 1009.2 |
| 20260902163706 | 58 | 110 | 2.0 | 7.0 | 0.00 | 0.00 | 0.00 | 64 | 1010.3 |
| 20260902163506 | 57 | 110 | 2.0 | 7.0 | 0.00 | 0.00 | 0.00 | 62 | 1009.0 |
| 20260902163204 | 58 | 123 | 3.0 | 8.0 | 0.00 | 0.00 | 0.00 | 64 | 1010.2 |
| 20260902163014 | 57 | 123 | 3.0 | 8.0 | 0.00 | 0.00 | 0.00 | 65 | 1008.9 |
| 20260902162704 | 58 | 106 | 4.0 | 8.0 | 0.00 | 0.00 | 0.00 | 66 | 1010.2 |
| 20260902162508 | 57 | 105 | 3.0 | 8.0 | 0.00 | 0.00 | 0.00 | 67 | 1008.9 |
| 20260902162205 | 57 | 114 | 5.0 | 8.0 | 0.00 | 0.00 | 0.00 | 67 | 1010.3 |
| 20260902162008 | 57 | 115 | 4.0 | 8.0 | 0.00 | 0.00 | 0.00 | 68 | 1008.9 |
| 20260902161931 | 57 | 105 | 3.0 | 7.0 | 0.00 | 0.00 | 0.00 | 68 | 1010.3 |
| 20260902161520 | 57 | 107 | 4.0 | 7.0 | 0.00 | 0.00 | 0.00 | 69 | 1008.9 |
| 20260902161205 | 57 | 110 | 2.0 | 6.0 | 0.00 | 0.00 | 0.00 | 68 | 1010.2 |
| 20260902161011 | 57 | 112 | 2.0 | 6.0 | 0.00 | 0.00 | 0.00 | 68 | 1008.9 |
| 20260902160511 | 57 | 116 | 2.0 | 6.0 | 0.00 | 0.00 | 0.00 | 68 | 1008.9 |
| 20260902160203 | 57 | 116 | 3.0 | 6.0 | 0.00 | 0.00 | 0.00 | 69 | 1010.2 |
| 20260902160034 | 57 | 107 | 3.0 | 6.0 | 0.00 | 0.00 | 0.00 | 69 | 1008.9 |
| 20260902155703 | 57 | 99 | 1.0 | 6.0 | 0.00 | 0.00 | 0.00 | 70 | 1010.1 |
| 20260902155515 | 56 | 123 | 0.0 | 3.0 | 0.00 | 0.00 | 0.00 | 68 | 1008.9 |
| 20260902155202 | 57 | 142 | 0.0 | 2.0 | 0.00 | 0.00 | 0.00 | 65 | 1010.2 |
| 20260902155011 | 56 | 156 | 0.0 | 2.0 | 0.00 | 0.00 | 0.00 | 63 | 1008.9 |
| 20260902154703 | 56 | 155 | 0.0 | 2.0 | 0.00 | 0.00 | 0.00 | 64 | 1010.2 |
| 20260902154538 | 56 | 155 | 0.0 | 2.0 | 0.00 | 0.00 | 0.00 | 65 | 1009.0 |
| 20260902154202 | 56 | 142 | 0.0 | 3.0 | 0.00 | 0.00 | 0.00 | 68 | 1010.2 |
| 20260902154009 | 56 | 142 | 0.0 | 4.0 | 0.00 | 0.00 | 0.00 | 68 | 1009.0 |
| 20260902153701 | 56 | 234 | 1.0 | 4.0 | 0.00 | 0.00 | 0.00 | 67 | 1010.2 |
| 20260902153510 | 56 | 236 | 0.0 | 6.0 | 0.00 | 0.00 | 0.00 | 67 | 1008.9 |
| 20260902153158 | 56 | 106 | 2.0 | 8.0 | 0.00 | 0.00 | 0.00 | 68 | 1010.2 |
| 20260902153035 | 56 | 105 | 2.0 | 8.0 | 0.00 | 0.00 | 0.00 | 69 | 1008.9 |
| 20260902152659 | 56 | 109 | 2.0 | 8.0 | 0.00 | 0.00 | 0.00 | 70 | 1010.2 |
| 20260902152510 | 55 | 110 | 3.0 | 8.0 | 0.00 | 0.00 | 0.00 | 70 | 1009.0 |
| 20260902152158 | 56 | 107 | 1.0 | 6.0 | 0.00 | 0.00 | 0.00 | 70 | 1010.2 |
| 20260902152007 | 55 | 105 | 2.0 | 6.0 | 0.00 | 0.00 | 0.00 | 69 | 1009.0 |
| 20260902151659 | 55 | 107 | 2.0 | 6.0 | 0.00 | 0.00 | 0.00 | 70 | 1010.5 |
| 20260902151517 | 55 | 107 | 1.0 | 7.0 | 0.00 | 0.00 | 0.00 | 70 | 1009.3 |
| 20260902151158 | 55 | 118 | 4.0 | 8.0 | 0.00 | 0.00 | 0.00 | 71 | 1010.5 |
| 20260902151007 | 55 | 115 | 3.0 | 8.0 | 0.00 | 0.00 | 0.00 | 70 | 1009.2 |
| 20260902150657 | 55 | 109 | 4.0 | 8.0 | 0.00 | 0.00 | 0.00 | 73 | 1010.5 |
| 20260902150511 | 55 | 98 | 4.0 | 8.0 | 0.00 | 0.00 | 0.00 | 73 | 1009.2 |
| 20260902150151 | 55 | 101 | 3.0 | 7.0 | 0.00 | 0.00 | 0.00 | 73 | 1010.4 |
| 20260902150025 | 54 | 117 | 2.0 | 7.0 | 0.00 | 0.00 | 0.00 | 72 | 1009.0 |
| 20260902145906 | 54 | 96 | 3.0 | 7.0 | 0.00 | 0.00 | 0.00 | 73 | 1010.4 |
| 20260902145512 | 54 | 108 | 2.0 | 7.0 | 0.00 | 0.00 | 0.00 | 73 | 1009.2 |
| 20260902145137 | 54 | 109 | 2.0 | 4.0 | 0.00 | 0.00 | 0.00 | 73 | 1010.8 |
| 20260902145011 | 53 | 100 | 3.0 | 4.0 | 0.00 | 0.00 | 0.00 | 72 | 1009.4 |
| 20260902144631 | 54 | 107 | 1.0 | 4.0 | 0.00 | 0.00 | 0.00 | 73 | 1010.8 |
| 20260902144523 | 53 | 128 | 0.0 | 3.0 | 0.00 | 0.00 | 0.00 | 72 | 1009.4 |
| 20260902144127 | 53 | 200 | 1.0 | 3.0 | 0.00 | 0.00 | 0.00 | 72 | 1010.8 |
| 20260902144013 | 53 | 236 | 0.0 | 3.0 | 0.00 | 0.00 | 0.00 | 71 | 1009.5 |
| 20260902143620 | 53 | 236 | 1.0 | 3.0 | 0.00 | 0.00 | 0.00 | 71 | 1010.8 |
| 20260902143510 | 53 | 236 | 0.0 | 3.0 | 0.00 | 0.00 | 0.00 | 71 | 1009.5 |
| 20260902143114 | 53 | 186 | 1.0 | 3.0 | 0.00 | 0.00 | 0.00 | 73 | 1010.8 |
| 20260902143024 | 52 | 186 | 0.0 | 3.0 | 0.00 | 0.00 | 0.00 | 73 | 1009.4 |
| 20260902142608 | 53 | 78 | 1.0 | 3.0 | 0.00 | 0.00 | 0.00 | 73 | 1010.8 |
| 20260902142515 | 52 | 78 | 0.0 | 3.0 | 0.00 | 0.00 | 0.00 | 72 | 1009.3 |
| 20260902142102 | 52 | 68 | 1.0 | 8.0 | 0.00 | 0.00 | 0.00 | 73 | 1010.7 |
| 20260902142009 | 52 | 68 | 0.0 | 8.0 | 0.00 | 0.00 | 0.00 | 73 | 1009.3 |
| 20260902141556 | 52 | 110 | 2.0 | 8.0 | 0.00 | 0.00 | 0.00 | 74 | 1010.4 |
| 20260902141513 | 52 | 110 | 1.0 | 8.0 | 0.00 | 0.00 | 0.00 | 74 | 1008.9 |
| 20260902141050 | 52 | 244 | 2.0 | 8.0 | 0.00 | 0.00 | 0.00 | 75 | 1010.5 |
| 20260902141008 | 51 | 118 | 3.0 | 8.0 | 0.00 | 0.00 | 0.00 | 75 | 1009.2 |
| 20260902140545 | 51 | 138 | 1.0 | 6.0 | 0.00 | 0.00 | 0.00 | 75 | 1010.8 |
| 20260902140504 | 51 | 147 | 1.0 | 6.0 | 0.00 | 0.00 | 0.00 | 74 | 1009.5 |
| 20260902140038 | 51 | 131 | 2.0 | 8.0 | 0.00 | 0.00 | 0.00 | 76 | 1010.7 |
| 20260902140012 | 50 | 170 | 1.0 | 8.0 | 0.00 | 0.00 | 0.00 | 77 | 1009.3 |
| 20260902135532 | 50 | 126 | 2.0 | 8.0 | 0.00 | 0.00 | 0.00 | 79 | 1010.5 |
| 20260902135507 | 49 | 126 | 1.0 | 8.0 | 0.00 | 0.00 | 0.00 | 79 | 1009.0 |
| 20260902135026 | 49 | 111 | 3.0 | 8.0 | 0.00 | 0.00 | 0.00 | 82 | 1010.2 |
| 20260902135011 | 48 | 120 | 1.0 | 8.0 | 0.00 | 0.00 | 0.00 | 81 | 1008.7 |
| 20260902134520 | 48 | 109 | 2.0 | 8.0 | 0.00 | 0.00 | 0.00 | 83 | 1010.1 |
| 20260902134509 | 47 | 111 | 3.0 | 8.0 | 0.00 | 0.00 | 0.00 | 83 | 1008.6 |
| 20260902134014 | 47 | 106 | 0.0 | 7.0 | 0.00 | 0.00 | 0.00 | 84 | 1010.0 |
| 20260902134003 | 46 | 119 | 2.0 | 7.0 | 0.00 | 0.00 | 0.00 | 83 | 1008.5 |
| 20260902133508 | 46 | 107 | 0.0 | 1.0 | 0.00 | 0.00 | 0.00 | 82 | 1009.9 |
| 20260902133505 | 46 | 107 | 0.0 | 1.0 | 0.00 | 0.00 | 0.00 | 81 | 1008.5 |
| 20260902133004 | 46 | 107 | 0.0 | 1.0 | 0.00 | 0.00 | 0.00 | 80 | 1008.4 |
| 20260902133002 | 47 | 107 | 0.0 | 1.0 | 0.00 | 0.00 | 0.00 | 81 | 1009.9 |
| 20260902132508 | 46 | 107 | 0.0 | 1.0 | 0.00 | 0.00 | 0.00 | 79 | 1008.3 |
| 20260902132456 | 47 | 107 | 0.0 | 1.0 | 0.00 | 0.00 | 0.00 | 79 | 1009.7 |
| 20260902132213 | 47 | 107 | 0.0 | 0.0 | 0.00 | 0.00 | 0.00 | 79 | 1009.9 |
| 20260902132004 | 47 | 107 | 0.0 | 0.0 | 0.00 | 0.00 | 0.00 | 79 | 1008.2 |
| 20260902131511 | 47 | 107 | 0.0 | 1.0 | 0.00 | 0.00 | 0.00 | 79 | 1008.3 |
| 20260902131444 | 47 | 107 | 0.0 | 1.0 | 0.00 | 0.00 | 0.00 | 79 | 1009.7 |
| 20260902131005 | 47 | 107 | 0.0 | 1.0 | 0.00 | 0.00 | 0.00 | 78 | 1008.3 |
| 20260902130939 | 48 | 107 | 0.0 | 1.0 | 0.00 | 0.00 | 0.00 | 78 | 1009.6 |
| 20260902130507 | 48 | 107 | 0.0 | 0.0 | 0.00 | 0.00 | 0.00 | 77 | 1008.1 |
| 20260902130432 | 48 | 107 | 0.0 | 0.0 | 0.00 | 0.00 | 0.00 | 78 | 1009.5 |
| 20260902130015 | 48 | 107 | 0.0 | 1.0 | 0.00 | 0.00 | 0.00 | 76 | 1008.1 |
| 20260902125925 | 49 | 107 | 0.0 | 1.0 | 0.00 | 0.00 | 0.00 | 77 | 1009.5 |
| 20260902125508 | 49 | 107 | 0.0 | 1.0 | 0.00 | 0.00 | 0.00 | 76 | 1008.1 |
| 20260902125421 | 49 | 107 | 0.0 | 1.0 | 0.00 | 0.00 | 0.00 | 77 | 1009.5 |
| 20260902125004 | 49 | 107 | 0.0 | 1.0 | 0.00 | 0.00 | 0.00 | 76 | 1008.2 |
| 20260902124914 | 49 | 107 | 0.0 | 1.0 | 0.00 | 0.00 | 0.00 | 77 | 1009.6 |
| 20260902124520 | 49 | 107 | 0.0 | 1.0 | 0.00 | 0.00 | 0.00 | 76 | 1008.3 |
| 20260902124408 | 49 | 107 | 0.0 | 1.0 | 0.00 | 0.00 | 0.00 | 77 | 1009.7 |
| 20260902124012 | 49 | 107 | 0.0 | 1.0 | 0.00 | 0.00 | 0.00 | 76 | 1008.2 |
| 20260902123902 | 50 | 107 | 0.0 | 2.0 | 0.00 | 0.00 | 0.00 | 76 | 1009.7 |
| 20260902123504 | 50 | 106 | 0.0 | 7.0 | 0.00 | 0.00 | 0.00 | 77 | 1008.3 |
| 20260902123355 | 51 | 106 | 2.0 | 7.0 | 0.00 | 0.00 | 0.00 | 77 | 1009.7 |
| 20260902123112 | 51 | 106 | 3.0 | 7.0 | 0.00 | 0.00 | 0.00 | 80 | 1009.9 |
| 20260902123016 | 50 | 106 | 2.0 | 7.0 | 0.00 | 0.00 | 0.00 | 80 | 1008.3 |
| 20260902122512 | 51 | 99 | 4.0 | 7.0 | 0.00 | 0.00 | 0.00 | 79 | 1008.3 |
| 20260902122344 | 51 | 117 | 2.0 | 6.0 | 0.00 | 0.00 | 0.00 | 79 | 1009.7 |
| 20260902122003 | 51 | 113 | 2.0 | 4.0 | 0.00 | 0.00 | 0.00 | 79 | 1008.3 |
| 20260902121837 | 51 | 113 | 2.0 | 4.0 | 0.00 | 0.00 | 0.00 | 79 | 1009.7 |
| 20260902121511 | 51 | 112 | 1.0 | 4.0 | 0.00 | 0.00 | 0.00 | 78 | 1008.2 |
| 20260902121332 | 51 | 112 | 2.0 | 4.0 | 0.00 | 0.00 | 0.00 | 78 | 1009.7 |
| 20260902121007 | 51 | 112 | 1.0 | 4.0 | 0.00 | 0.00 | 0.00 | 77 | 1008.2 |
| 20260902120825 | 51 | 112 | 2.0 | 4.0 | 0.00 | 0.00 | 0.00 | 78 | 1009.6 |
| 20260902120506 | 51 | 111 | 2.0 | 6.0 | 0.00 | 0.00 | 0.00 | 76 | 1008.3 |
| 20260902120320 | 51 | 110 | 3.0 | 6.0 | 0.00 | 0.00 | 0.00 | 77 | 1009.7 |
| 20260902120006 | 51 | 113 | 2.0 | 6.0 | 0.00 | 0.00 | 0.00 | 76 | 1008.4 |
| 20260902115814 | 51 | 113 | 3.0 | 6.0 | 0.00 | 0.00 | 0.00 | 77 | 1009.9 |
| 20260902115505 | 51 | 107 | 3.0 | 6.0 | 0.00 | 0.00 | 0.00 | 75 | 1008.4 |
| 20260902115309 | 51 | 109 | 2.0 | 4.0 | 0.00 | 0.00 | 0.00 | 75 | 1009.9 |
| 20260902115013 | 51 | 115 | 2.0 | 4.0 | 0.00 | 0.00 | 0.00 | 75 | 1008.4 |
| 20260902114802 | 52 | 115 | 2.0 | 4.0 | 0.00 | 0.00 | 0.00 | 76 | 1010.0 |
| 20260902114534 | 51 | 109 | 2.0 | 4.0 | 0.00 | 0.00 | 0.00 | 76 | 1008.5 |
| 20260902114256 | 52 | 105 | 1.0 | 4.0 | 0.00 | 0.00 | 0.00 | 76 | 1009.9 |
| 20260902114004 | 51 | 109 | 0.0 | 4.0 | 0.00 | 0.00 | 0.00 | 74 | 1008.5 |
| 20260902113750 | 52 | 109 | 1.0 | 4.0 | 0.00 | 0.00 | 0.00 | 75 | 1010.0 |
| 20260902113507 | 52 | 109 | 1.0 | 4.0 | 0.00 | 0.00 | 0.00 | 74 | 1008.4 |
| 20260902113244 | 52 | 109 | 1.0 | 3.0 | 0.00 | 0.00 | 0.00 | 72 | 1009.9 |
| 20260902113027 | 52 | 108 | 0.0 | 3.0 | 0.00 | 0.00 | 0.00 | 72 | 1008.5 |
| 20260902112740 | 52 | 108 | 2.0 | 3.0 | 0.00 | 0.00 | 0.00 | 72 | 1010.0 |
| 20260902112515 | 52 | 107 | 2.0 | 3.0 | 0.00 | 0.00 | 0.00 | 72 | 1008.5 |
| 20260902112232 | 52 | 111 | 2.0 | 4.0 | 0.00 | 0.00 | 0.00 | 73 | 1010.0 |
| 20260902112010 | 52 | 110 | 1.0 | 4.0 | 0.00 | 0.00 | 0.00 | 72 | 1008.5 |
| 20260902111953 | 52 | 111 | 2.0 | 4.0 | 0.00 | 0.00 | 0.00 | 73 | 1010.1 |
| 20260902111525 | 52 | 112 | 2.0 | 4.0 | 0.00 | 0.00 | 0.00 | 73 | 1008.5 |
| 20260902111437 | 53 | 116 | 2.0 | 4.0 | 0.00 | 0.00 | 0.00 | 72 | 1010.1 |
| 20260902111013 | 52 | 109 | 1.0 | 4.0 | 0.00 | 0.00 | 0.00 | 71 | 1008.6 |
| 20260902110950 | 53 | 109 | 3.0 | 4.0 | 0.00 | 0.00 | 0.00 | 71 | 1010.1 |
| 20260902110508 | 52 | 109 | 2.0 | 4.0 | 0.00 | 0.00 | 0.00 | 71 | 1008.7 |
| 20260902110436 | 53 | 107 | 3.0 | 6.0 | 0.00 | 0.00 | 0.00 | 71 | 1010.2 |
| 20260902110012 | 52 | 114 | 2.0 | 6.0 | 0.00 | 0.00 | 0.00 | 70 | 1008.8 |
| 20260902105706 | 53 | 105 | 2.0 | 6.0 | 0.00 | 0.00 | 0.00 | 70 | 1010.2 |
| 20260902105506 | 52 | 111 | 2.0 | 6.0 | 0.00 | 0.00 | 0.00 | 69 | 1008.8 |
| 20260902105206 | 53 | 114 | 2.0 | 4.0 | 0.00 | 0.00 | 0.00 | 69 | 1010.2 |
| 20260902105008 | 52 | 115 | 1.0 | 4.0 | 0.00 | 0.00 | 0.00 | 69 | 1008.8 |
| 20260902104704 | 53 | 114 | 3.0 | 4.0 | 0.00 | 0.00 | 0.00 | 69 | 1010.1 |
| 20260902104519 | 53 | 114 | 3.0 | 4.0 | 0.00 | 0.00 | 0.00 | 69 | 1008.7 |
| 20260902104203 | 53 | 111 | 2.0 | 4.0 | 0.00 | 0.00 | 0.00 | 69 | 1010.2 |
| 20260902104007 | 53 | 116 | 2.0 | 4.0 | 0.00 | 0.00 | 0.00 | 69 | 1008.7 |
| 20260902103704 | 53 | 117 | 2.0 | 4.0 | 0.00 | 0.00 | 0.00 | 69 | 1010.2 |
| 20260902103510 | 53 | 120 | 2.0 | 4.0 | 0.00 | 0.00 | 0.00 | 69 | 1008.8 |
| 20260902103204 | 53 | 113 | 2.0 | 4.0 | 0.00 | 0.00 | 0.00 | 68 | 1010.2 |
| 20260902103028 | 53 | 113 | 1.0 | 4.0 | 0.00 | 0.00 | 0.00 | 67 | 1009.0 |
| 20260902102705 | 53 | 113 | 3.0 | 6.0 | 0.00 | 0.00 | 0.00 | 67 | 1010.4 |
| 20260902102510 | 53 | 113 | 2.0 | 6.0 | 0.00 | 0.00 | 0.00 | 68 | 1009.1 |
| 20260902102204 | 54 | 111 | 3.0 | 6.0 | 0.00 | 0.00 | 0.00 | 68 | 1010.4 |
| 20260902102014 | 53 | 109 | 3.0 | 6.0 | 0.00 | 0.00 | 0.00 | 67 | 1009.2 |
| 20260902101925 | 54 | 111 | 2.0 | 6.0 | 0.00 | 0.00 | 0.00 | 67 | 1010.4 |
| 20260902101524 | 53 | 109 | 2.0 | 6.0 | 0.00 | 0.00 | 0.00 | 67 | 1009.3 |
| 20260902101202 | 54 | 115 | 2.0 | 4.0 | 0.00 | 0.00 | 0.00 | 67 | 1010.5 |
| 20260902101007 | 54 | 111 | 1.0 | 4.0 | 0.00 | 0.00 | 0.00 | 66 | 1009.3 |
| 20260902100702 | 54 | 112 | 2.0 | 3.0 | 0.00 | 0.00 | 0.00 | 67 | 1010.5 |
| 20260902100510 | 54 | 117 | 1.0 | 3.0 | 0.00 | 0.00 | 0.00 | 65 | 1009.4 |
| 20260902100429 | 55 | 115 | 1.0 | 3.0 | 0.00 | 0.00 | 0.00 | 66 | 1010.5 |
| 20260902100033 | 54 | 115 | 1.0 | 3.0 | 0.00 | 0.00 | 0.00 | 66 | 1009.3 |
| 20260902095702 | 55 | 113 | 1.0 | 3.0 | 0.00 | 0.00 | 0.00 | 65 | 1010.7 |
| 20260902095516 | 55 | 113 | 1.0 | 3.0 | 0.00 | 0.00 | 0.00 | 64 | 1009.5 |
| 20260902095419 | 55 | 113 | 1.0 | 3.0 | 0.00 | 0.00 | 0.00 | 63 | 1010.8 |
| 20260902095009 | 55 | 113 | 0.0 | 4.0 | 0.00 | 0.00 | 0.00 | 62 | 1009.6 |
| 20260902094701 | 55 | 112 | 1.0 | 4.0 | 0.00 | 0.00 | 0.00 | 64 | 1010.8 |
| 20260902094528 | 55 | 112 | 1.0 | 4.0 | 0.00 | 0.00 | 0.00 | 64 | 1009.6 |
| 20260902094158 | 56 | 113 | 0.0 | 4.0 | 0.00 | 0.00 | 0.00 | 65 | 1010.8 |
| 20260902094007 | 55 | 111 | 0.0 | 0.0 | 0.00 | 0.00 | 0.00 | 63 | 1009.7 |
| 20260902093658 | 56 | 109 | 0.0 | 0.0 | 0.00 | 0.00 | 0.00 | 62 | 1010.9 |
| 20260902093508 | 56 | 110 | 0.0 | 1.0 | 0.00 | 0.00 | 0.00 | 61 | 1009.7 |
| 20260902093158 | 56 | 110 | 0.0 | 1.0 | 0.00 | 0.00 | 0.00 | 62 | 1011.0 |
| 20260902093016 | 56 | 110 | 0.0 | 1.0 | 0.00 | 0.00 | 0.00 | 61 | 1009.8 |
| 20260902092658 | 56 | 110 | 0.0 | 1.0 | 0.00 | 0.00 | 0.00 | 61 | 1011.0 |
| 20260902092507 | 56 | 111 | 0.0 | 2.0 | 0.00 | 0.00 | 0.00 | 59 | 1009.8 |
| 20260902092009 | 56 | 111 | 0.0 | 2.0 | 0.00 | 0.00 | 0.00 | 58 | 1009.9 |
| 20260902091918 | 57 | 111 | 0.0 | 2.0 | 0.00 | 0.00 | 0.00 | 58 | 1011.1 |
| 20260902091523 | 57 | 111 | 0.0 | 2.0 | 0.00 | 0.00 | 0.00 | 59 | 1009.9 |
| 20260902091157 | 57 | 111 | 1.0 | 2.0 | 0.00 | 0.00 | 0.00 | 59 | 1011.2 |
| 20260902091015 | 57 | 111 | 0.0 | 2.0 | 0.00 | 0.00 | 0.00 | 59 | 1010.0 |
| 20260902090658 | 58 | 110 | 1.0 | 4.0 | 0.00 | 0.00 | 0.00 | 59 | 1011.2 |
| 20260902090513 | 57 | 110 | 0.0 | 4.0 | 0.00 | 0.00 | 0.00 | 59 | 1010.0 |
| 20260902090158 | 58 | 111 | 1.0 | 4.0 | 0.00 | 0.00 | 0.00 | 60 | 1011.3 |
| 20260902090035 | 57 | 111 | 1.0 | 4.0 | 0.00 | 0.00 | 0.00 | 59 | 1010.0 |
| 20260902085917 | 58 | 123 | 0.0 | 3.0 | 0.00 | 0.00 | 0.00 | 59 | 1011.2 |
| 20260902085511 | 57 | 149 | 0.0 | 4.0 | 0.00 | 0.00 | 0.00 | 58 | 1010.0 |
| 20260902085154 | 58 | 145 | 1.0 | 4.0 | 0.00 | 0.00 | 0.00 | 59 | 1011.2 |
| 20260902085015 | 57 | 103 | 0.0 | 4.0 | 0.00 | 0.00 | 0.00 | 59 | 1010.0 |
| 20260902084653 | 58 | 115 | 2.0 | 4.0 | 0.00 | 0.00 | 0.00 | 60 | 1011.2 |
| 20260902084541 | 57 | 117 | 2.0 | 4.0 | 0.00 | 0.00 | 0.00 | 59 | 1009.9 |
| 20260902084154 | 58 | 165 | 2.0 | 9.0 | 0.00 | 0.00 | 0.00 | 58 | 1011.2 |
| 20260902084008 | 58 | 192 | 1.0 | 9.0 | 0.00 | 0.00 | 0.00 | 58 | 1009.9 |
| 20260902083916 | 58 | 108 | 3.0 | 9.0 | 0.00 | 0.00 | 0.00 | 60 | 1011.2 |
| 20260902083513 | 58 | 127 | 4.0 | 9.0 | 0.00 | 0.00 | 0.00 | 59 | 1010.0 |
| 20260902083154 | 58 | 120 | 3.0 | 9.0 | 0.00 | 0.00 | 0.00 | 61 | 1011.3 |
| 20260902083036 | 58 | 123 | 2.0 | 8.0 | 0.00 | 0.00 | 0.00 | 60 | 1010.0 |
| 20260902082653 | 58 | 91 | 3.0 | 8.0 | 0.00 | 0.00 | 0.00 | 61 | 1011.1 |
| 20260902082515 | 58 | 107 | 3.0 | 8.0 | 0.00 | 0.00 | 0.00 | 58 | 1010.0 |
| 20260902082414 | 58 | 99 | 3.0 | 8.0 | 0.00 | 0.00 | 0.00 | 59 | 1011.2 |
| 20260902082008 | 58 | 56 | 2.0 | 7.0 | 0.00 | 0.00 | 0.00 | 58 | 1009.9 |
| 20260902081919 | 58 | 116 | 2.0 | 7.0 | 0.00 | 0.00 | 0.00 | 59 | 1011.2 |
| 20260902081521 | 58 | 109 | 2.0 | 7.0 | 0.00 | 0.00 | 0.00 | 59 | 1010.0 |
| 20260902081150 | 58 | 107 | 2.0 | 7.0 | 0.00 | 0.00 | 0.00 | 59 | 1011.3 |
| 20260902081013 | 58 | 94 | 1.0 | 7.0 | 0.00 | 0.00 | 0.00 | 58 | 1010.0 |
| 20260902080649 | 58 | 110 | 1.0 | 7.0 | 0.00 | 0.00 | 0.00 | 58 | 1011.2 |
| 20260902080509 | 58 | 104 | 1.0 | 7.0 | 0.00 | 0.00 | 0.00 | 59 | 1010.0 |
| 20260902080408 | 59 | 106 | 2.0 | 7.0 | 0.00 | 0.00 | 0.00 | 59 | 1011.1 |
| 20260902080026 | 58 | 101 | 0.0 | 7.0 | 0.00 | 0.00 | 0.00 | 59 | 1009.9 |
| 20260902075650 | 59 | 191 | 2.0 | 10.0 | 0.00 | 0.00 | 0.00 | 58 | 1011.1 |
| 20260902075513 | 58 | 96 | 0.0 | 10.0 | 0.00 | 0.00 | 0.00 | 59 | 1009.9 |
| 20260902075150 | 59 | 113 | 2.0 | 10.0 | 0.00 | 0.00 | 0.00 | 59 | 1011.1 |
| 20260902075003 | 58 | 138 | 1.0 | 11.0 | 0.00 | 0.00 | 0.00 | 59 | 1009.8 |
| 20260902074649 | 59 | 59 | 2.0 | 11.0 | 0.00 | 0.00 | 0.00 | 61 | 1011.1 |
| 20260902074513 | 58 | 112 | 1.0 | 11.0 | 0.00 | 0.00 | 0.00 | 60 | 1009.8 |
| 20260902074148 | 59 | 109 | 3.0 | 11.0 | 0.00 | 0.00 | 0.00 | 60 | 1011.1 |
| 20260902074002 | 59 | 96 | 1.0 | 8.0 | 0.00 | 0.00 | 0.00 | 60 | 1009.8 |
| 20260902073645 | 59 | 92 | 4.0 | 13.0 | 0.00 | 0.00 | 0.00 | 62 | 1011.1 |
| 20260902073503 | 59 | 102 | 3.0 | 13.0 | 0.00 | 0.00 | 0.00 | 60 | 1009.9 |
| 20260902073146 | 59 | 103 | 4.0 | 13.0 | 0.00 | 0.00 | 0.00 | 60 | 1011.1 |
| 20260902073014 | 59 | 119 | 5.0 | 13.0 | 0.00 | 0.00 | 0.00 | 60 | 1009.8 |
| 20260902072646 | 59 | 103 | 5.0 | 13.0 | 0.00 | 0.00 | 0.00 | 61 | 1011.0 |
| 20260902072503 | 59 | 86 | 4.0 | 13.0 | 0.00 | 0.00 | 0.00 | 59 | 1009.8 |
| 20260902072146 | 59 | 101 | 5.0 | 13.0 | 0.00 | 0.00 | 0.00 | 60 | 1011.1 |
| 20260902072004 | 59 | 112 | 5.0 | 13.0 | 0.00 | 0.00 | 0.00 | 60 | 1009.8 |
| 20260902071645 | 59 | 115 | 6.0 | 11.0 | 0.00 | 0.00 | 0.00 | 60 | 1011.1 |
| 20260902071514 | 59 | 111 | 5.0 | 11.0 | 0.00 | 0.00 | 0.00 | 59 | 1009.8 |
| 20260902071146 | 59 | 111 | 6.0 | 15.0 | 0.00 | 0.00 | 0.00 | 61 | 1011.2 |
| 20260902071010 | 59 | 113 | 5.0 | 15.0 | 0.00 | 0.00 | 0.00 | 60 | 1009.9 |
| 20260902070504 | 59 | 120 | 6.0 | 15.0 | 0.00 | 0.00 | 0.00 | 58 | 1009.9 |
| 20260902070133 | 59 | 115 | 6.0 | 12.0 | 0.00 | 0.00 | 0.00 | 58 | 1011.3 |
| 20260902070010 | 59 | 104 | 5.0 | 12.0 | 0.00 | 0.00 | 0.00 | 58 | 1009.9 |
| 20260902065628 | 59 | 111 | 6.0 | 11.0 | 0.00 | 0.00 | 0.00 | 58 | 1011.2 |
| 20260902065509 | 59 | 115 | 5.0 | 11.0 | 0.00 | 0.00 | 0.00 | 58 | 1010.0 |
| 20260902065122 | 59 | 127 | 6.0 | 12.0 | 0.00 | 0.00 | 0.00 | 58 | 1011.2 |
| 20260902065017 | 59 | 103 | 5.0 | 12.0 | 0.00 | 0.00 | 0.00 | 58 | 1010.0 |
| 20260902064616 | 60 | 110 | 5.0 | 12.0 | 0.00 | 0.00 | 0.00 | 59 | 1011.3 |
| 20260902064508 | 59 | 146 | 5.0 | 12.0 | 0.00 | 0.00 | 0.00 | 57 | 1009.9 |
| 20260902064110 | 60 | 103 | 6.0 | 12.0 | 0.00 | 0.00 | 0.00 | 57 | 1011.3 |
| 20260902064005 | 59 | 102 | 5.0 | 12.0 | 0.00 | 0.00 | 0.00 | 56 | 1010.0 |
| 20260902063823 | 60 | 111 | 6.0 | 12.0 | 0.00 | 0.00 | 0.00 | 57 | 1011.3 |
| 20260902063502 | 59 | 103 | 7.0 | 11.0 | 0.00 | 0.00 | 0.00 | 55 | 1010.0 |
| 20260902063059 | 60 | 139 | 6.0 | 13.0 | 0.00 | 0.00 | 0.00 | 56 | 1011.3 |
| 20260902063006 | 59 | 98 | 6.0 | 13.0 | 0.00 | 0.00 | 0.00 | 55 | 1010.0 |
| 20260902062552 | 60 | 87 | 7.0 | 13.0 | 0.00 | 0.00 | 0.00 | 55 | 1011.5 |
| 20260902062503 | 59 | 123 | 6.0 | 13.0 | 0.00 | 0.00 | 0.00 | 55 | 1010.1 |
| 20260902062046 | 60 | 126 | 6.0 | 13.0 | 0.00 | 0.00 | 0.00 | 55 | 1011.6 |
| 20260902062010 | 59 | 111 | 8.0 | 13.0 | 0.00 | 0.00 | 0.00 | 55 | 1010.1 |
| 20260902061540 | 59 | 100 | 5.0 | 11.0 | 0.00 | 0.00 | 0.00 | 54 | 1011.6 |
| 20260902061514 | 59 | 113 | 5.0 | 11.0 | 0.00 | 0.00 | 0.00 | 54 | 1010.2 |
| 20260902061034 | 59 | 103 | 4.0 | 10.0 | 0.00 | 0.00 | 0.00 | 54 | 1011.7 |
| 20260902061006 | 59 | 115 | 5.0 | 10.0 | 0.00 | 0.00 | 0.00 | 54 | 1010.3 |
| 20260902060528 | 59 | 141 | 4.0 | 9.0 | 0.00 | 0.00 | 0.00 | 54 | 1011.7 |
| 20260902060512 | 59 | 105 | 3.0 | 9.0 | 0.00 | 0.00 | 0.00 | 54 | 1010.3 |
| 20260902060023 | 59 | 113 | 3.0 | 11.0 | 0.00 | 0.00 | 0.00 | 54 | 1010.2 |
| 20260902055516 | 60 | 80 | 5.0 | 11.0 | 0.00 | 0.00 | 0.00 | 55 | 1011.5 |
| 20260902055503 | 59 | 93 | 4.0 | 11.0 | 0.00 | 0.00 | 0.00 | 54 | 1010.2 |
| 20260902055010 | 60 | 111 | 5.0 | 13.0 | 0.00 | 0.00 | 0.00 | 55 | 1011.5 |
| 20260902055004 | 59 | 110 | 4.0 | 13.0 | 0.00 | 0.00 | 0.00 | 54 | 1010.3 |
| 20260902054723 | 60 | 92 | 6.0 | 13.0 | 0.00 | 0.00 | 0.00 | 55 | 1011.5 |
| 20260902054524 | 59 | 108 | 5.0 | 13.0 | 0.00 | 0.00 | 0.00 | 54 | 1010.3 |
| 20260902054013 | 59 | 115 | 5.0 | 13.0 | 0.00 | 0.00 | 0.00 | 55 | 1010.1 |
| 20260902053957 | 60 | 113 | 6.0 | 13.0 | 0.00 | 0.00 | 0.00 | 55 | 1011.5 |
| 20260902053507 | 59 | 130 | 5.0 | 12.0 | 0.00 | 0.00 | 0.00 | 54 | 1010.0 |
| 20260902053452 | 60 | 125 | 7.0 | 12.0 | 0.00 | 0.00 | 0.00 | 55 | 1011.3 |
| 20260902053016 | 59 | 107 | 5.0 | 13.0 | 0.00 | 0.00 | 0.00 | 55 | 1010.1 |
| 20260902052946 | 60 | 112 | 7.0 | 13.0 | 0.00 | 0.00 | 0.00 | 55 | 1011.5 |
| 20260902052504 | 59 | 115 | 6.0 | 13.0 | 0.00 | 0.00 | 0.00 | 55 | 1010.1 |
| 20260902052440 | 60 | 111 | 7.0 | 13.0 | 0.00 | 0.00 | 0.00 | 56 | 1011.5 |
| 20260902052006 | 59 | 110 | 6.0 | 13.0 | 0.00 | 0.00 | 0.00 | 55 | 1010.2 |
| 20260902051934 | 60 | 114 | 6.0 | 12.0 | 0.00 | 0.00 | 0.00 | 56 | 1011.5 |
| 20260902051511 | 59 | 105 | 5.0 | 17.0 | 0.00 | 0.00 | 0.00 | 56 | 1010.1 |
| 20260902051428 | 60 | 90 | 7.0 | 17.0 | 0.00 | 0.00 | 0.00 | 57 | 1011.5 |
| 20260902051007 | 60 | 118 | 7.0 | 17.0 | 0.00 | 0.00 | 0.00 | 56 | 1010.3 |
| 20260902050922 | 60 | 40 | 7.0 | 17.0 | 0.00 | 0.00 | 0.00 | 56 | 1011.5 |
| 20260902050638 | 60 | 116 | 7.0 | 13.0 | 0.00 | 0.00 | 0.00 | 56 | 1011.7 |
| 20260902050508 | 60 | 91 | 7.0 | 13.0 | 0.00 | 0.00 | 0.00 | 56 | 1010.3 |
| 20260902050008 | 60 | 110 | 6.0 | 16.0 | 0.00 | 0.00 | 0.00 | 55 | 1010.4 |
| 20260902045910 | 60 | 104 | 8.0 | 16.0 | 0.00 | 0.00 | 0.00 | 56 | 1011.7 |
| 20260902045510 | 59 | 108 | 5.0 | 16.0 | 0.00 | 0.00 | 0.00 | 56 | 1010.3 |
| 20260902045404 | 60 | 109 | 9.0 | 16.0 | 0.00 | 0.00 | 0.00 | 56 | 1011.7 |
| 20260902045008 | 60 | 123 | 8.0 | 16.0 | 0.00 | 0.00 | 0.00 | 56 | 1010.3 |
| 20260902044619 | 60 | 112 | 8.0 | 16.0 | 0.00 | 0.00 | 0.00 | 54 | 1011.7 |
| 20260902044521 | 59 | 118 | 9.0 | 16.0 | 0.00 | 0.00 | 0.00 | 56 | 1010.3 |
| 20260902044006 | 59 | 105 | 7.0 | 17.0 | 0.00 | 0.00 | 0.00 | 56 | 1010.4 |
| 20260902043847 | 60 | 120 | 8.0 | 17.0 | 0.00 | 0.00 | 0.00 | 55 | 1011.8 |
| 20260902043510 | 60 | 83 | 8.0 | 17.0 | 0.00 | 0.00 | 0.00 | 55 | 1010.3 |
| 20260902043340 | 60 | 130 | 9.0 | 17.0 | 0.00 | 0.00 | 0.00 | 56 | 1011.6 |
| 20260902043102 | 60 | 111 | 9.0 | 16.0 | 0.00 | 0.00 | 0.00 | 56 | 1011.6 |
| 20260902043027 | 60 | 67 | 9.0 | 16.0 | 0.00 | 0.00 | 0.00 | 56 | 1010.3 |
| 20260902042505 | 60 | 116 | 8.0 | 16.0 | 0.00 | 0.00 | 0.00 | 55 | 1010.4 |
| 20260902042328 | 60 | 108 | 9.0 | 16.0 | 0.00 | 0.00 | 0.00 | 56 | 1011.7 |
| 20260902042008 | 60 | 92 | 8.0 | 16.0 | 0.00 | 0.00 | 0.00 | 55 | 1010.6 |
| 20260902041822 | 60 | 102 | 9.0 | 16.0 | 0.00 | 0.00 | 0.00 | 55 | 1011.7 |
| 20260902041540 | 60 | 101 | 9.0 | 16.0 | 0.00 | 0.00 | 0.00 | 54 | 1010.4 |
| 20260902041318 | 60 | 108 | 9.0 | 16.0 | 0.00 | 0.00 | 0.00 | 54 | 1011.8 |
| 20260902041040 | 60 | 110 | 10.0 | 16.0 | 0.00 | 0.00 | 0.00 | 55 | 1011.8 |
| 20260902041014 | 60 | 108 | 8.0 | 16.0 | 0.00 | 0.00 | 0.00 | 53 | 1010.4 |
| 20260902040504 | 60 | 98 | 9.0 | 16.0 | 0.00 | 0.00 | 0.00 | 55 | 1010.3 |
| 20260902040313 | 60 | 103 | 10.0 | 20.0 | 0.00 | 0.00 | 0.00 | 54 | 1011.7 |
| 20260902040012 | 60 | 113 | 11.0 | 20.0 | 0.00 | 0.00 | 0.00 | 54 | 1010.3 |
| 20260902035814 | 61 | 117 | 10.0 | 20.0 | 0.00 | 0.00 | 0.00 | 55 | 1011.8 |
| 20260902035507 | 60 | 104 | 10.0 | 20.0 | 0.00 | 0.00 | 0.00 | 55 | 1010.3 |
| 20260902035315 | 61 | 98 | 9.0 | 16.0 | 0.00 | 0.00 | 0.00 | 55 | 1011.9 |
| 20260902035002 | 60 | 98 | 9.0 | 16.0 | 0.00 | 0.00 | 0.00 | 53 | 1010.4 |
| 20260902034814 | 60 | 109 | 8.0 | 16.0 | 0.00 | 0.00 | 0.00 | 55 | 1011.9 |
| 20260902034504 | 60 | 105 | 8.0 | 13.0 | 0.00 | 0.00 | 0.00 | 54 | 1010.4 |
| 20260902034315 | 60 | 128 | 7.0 | 13.0 | 0.00 | 0.00 | 0.00 | 55 | 1011.9 |
| 20260902034038 | 60 | 111 | 7.0 | 13.0 | 0.00 | 0.00 | 0.00 | 54 | 1011.9 |
| 20260902034002 | 60 | 102 | 8.0 | 13.0 | 0.00 | 0.00 | 0.00 | 53 | 1010.4 |
| 20260902033502 | 60 | 117 | 6.0 | 13.0 | 0.00 | 0.00 | 0.00 | 53 | 1010.3 |
| 20260902033314 | 61 | 93 | 7.0 | 13.0 | 0.00 | 0.00 | 0.00 | 53 | 1011.8 |
| 20260902033004 | 60 | 148 | 5.0 | 13.0 | 0.00 | 0.00 | 0.00 | 52 | 1010.3 |
| 20260902032814 | 61 | 98 | 6.0 | 13.0 | 0.00 | 0.00 | 0.00 | 52 | 1011.6 |
| 20260902032501 | 61 | 113 | 6.0 | 11.0 | 0.00 | 0.00 | 0.00 | 54 | 1010.3 |
| 20260902032315 | 61 | 88 | 5.0 | 11.0 | 0.00 | 0.00 | 0.00 | 52 | 1011.6 |
| 20260902032041 | 61 | 107 | 6.0 | 12.0 | 0.00 | 0.00 | 0.00 | 51 | 1011.6 |
| 20260902032003 | 61 | 109 | 4.0 | 12.0 | 0.00 | 0.00 | 0.00 | 52 | 1010.3 |
| 20260902031507 | 61 | 130 | 5.0 | 13.0 | 0.00 | 0.00 | 0.00 | 50 | 1010.2 |
| 20260902031313 | 62 | 133 | 7.0 | 13.0 | 0.00 | 0.00 | 0.00 | 51 | 1011.5 |
| 20260902031005 | 62 | 138 | 5.0 | 15.0 | 0.00 | 0.00 | 0.00 | 50 | 1010.1 |
| 20260902030814 | 62 | 126 | 8.0 | 15.0 | 0.00 | 0.00 | 0.00 | 53 | 1011.3 |
| 20260902030503 | 62 | 115 | 8.0 | 15.0 | 0.00 | 0.00 | 0.00 | 52 | 1010.0 |
| 20260902030315 | 62 | 100 | 8.0 | 15.0 | 0.00 | 0.00 | 0.00 | 53 | 1011.3 |
| 20260902030007 | 62 | 104 | 7.0 | 15.0 | 0.00 | 0.00 | 0.00 | 54 | 1009.8 |
| 20260902025815 | 62 | 87 | 9.0 | 15.0 | 0.00 | 0.00 | 0.00 | 53 | 1011.2 |
| 20260902025504 | 62 | 103 | 8.0 | 15.0 | 0.00 | 0.00 | 0.00 | 51 | 1009.8 |
| 20260902025312 | 63 | 110 | 9.0 | 15.0 | 0.00 | 0.00 | 0.00 | 52 | 1011.2 |
| 20260902025036 | 63 | 88 | 9.0 | 15.0 | 0.00 | 0.00 | 0.00 | 51 | 1011.2 |
| 20260902025003 | 62 | 104 | 10.0 | 15.0 | 0.00 | 0.00 | 0.00 | 51 | 1009.8 |
| 20260902024504 | 62 | 117 | 10.0 | 17.0 | 0.00 | 0.00 | 0.00 | 50 | 1009.7 |
| 20260902024312 | 63 | 84 | 9.0 | 17.0 | 0.00 | 0.00 | 0.00 | 51 | 1011.1 |
| 20260902024004 | 63 | 109 | 10.0 | 17.0 | 0.00 | 0.00 | 0.00 | 52 | 1009.7 |
| 20260902023812 | 63 | 117 | 10.0 | 17.0 | 0.00 | 0.00 | 0.00 | 54 | 1011.0 |
| 20260902023509 | 63 | 112 | 9.0 | 14.0 | 0.00 | 0.00 | 0.00 | 53 | 1009.7 |
| 20260902023313 | 63 | 109 | 10.0 | 14.0 | 0.00 | 0.00 | 0.00 | 55 | 1011.0 |
| 20260902023003 | 63 | 115 | 9.0 | 16.0 | 0.00 | 0.00 | 0.00 | 50 | 1009.6 |
| 20260902022812 | 64 | 111 | 9.0 | 16.0 | 0.00 | 0.00 | 0.00 | 53 | 1011.1 |
| 20260902022502 | 63 | 118 | 8.0 | 16.0 | 0.00 | 0.00 | 0.00 | 53 | 1009.6 |
| 20260902022311 | 64 | 108 | 8.0 | 16.0 | 0.00 | 0.00 | 0.00 | 51 | 1011.0 |
| 20260902022003 | 63 | 80 | 4.0 | 16.0 | 0.00 | 0.00 | 0.00 | 51 | 1009.6 |
| 20260902021812 | 64 | 130 | 8.0 | 16.0 | 0.00 | 0.00 | 0.00 | 51 | 1011.0 |
| 20260902021511 | 63 | 84 | 7.0 | 17.0 | 0.00 | 0.00 | 0.00 | 51 | 1009.6 |
| 20260902021312 | 64 | 74 | 8.0 | 18.0 | 0.00 | 0.00 | 0.00 | 52 | 1010.9 |
| 20260902021003 | 64 | 101 | 8.0 | 24.0 | 0.00 | 0.00 | 0.00 | 49 | 1009.6 |
| 20260902020807 | 64 | 119 | 11.0 | 25.0 | 0.00 | 0.00 | 0.00 | 50 | 1010.9 |
| 20260902020503 | 64 | 90 | 9.0 | 25.0 | 0.00 | 0.00 | 0.00 | 50 | 1009.6 |
| 20260902020308 | 64 | 117 | 13.0 | 25.0 | 0.00 | 0.00 | 0.00 | 50 | 1010.9 |
| 20260902020004 | 64 | 113 | 13.0 | 26.0 | 0.00 | 0.00 | 0.00 | 52 | 1009.6 |
| 20260902015809 | 64 | 103 | 13.0 | 26.0 | 0.00 | 0.00 | 0.00 | 52 | 1010.9 |
| 20260902015502 | 64 | 124 | 13.0 | 26.0 | 0.00 | 0.00 | 0.00 | 51 | 1009.6 |
| 20260902015308 | 64 | 107 | 12.0 | 26.0 | 0.00 | 0.00 | 0.00 | 51 | 1010.9 |
| 20260902015029 | 65 | 122 | 11.0 | 22.0 | 0.00 | 0.00 | 0.00 | 52 | 1010.9 |
| 20260902015002 | 64 | 136 | 13.0 | 21.0 | 0.00 | 0.00 | 0.00 | 49 | 1009.6 |
| 20260902014512 | 64 | 71 | 11.0 | 22.0 | 0.00 | 0.00 | 0.00 | 51 | 1009.6 |
| 20260902014308 | 65 | 119 | 10.0 | 24.0 | 0.00 | 0.00 | 0.00 | 50 | 1010.9 |
| 20260902014006 | 64 | 100 | 10.0 | 24.0 | 0.00 | 0.00 | 0.00 | 50 | 1009.6 |
| 20260902013504 | 64 | 101 | 11.0 | 24.0 | 0.00 | 0.00 | 0.00 | 48 | 1009.6 |
| 20260902013307 | 65 | 63 | 11.0 | 25.0 | 0.00 | 0.00 | 0.00 | 49 | 1010.9 |
| 20260902013009 | 65 | 157 | 10.0 | 25.0 | 0.00 | 0.00 | 0.00 | 48 | 1009.7 |
| 20260902012808 | 65 | 85 | 11.0 | 27.0 | 0.00 | 0.00 | 0.00 | 49 | 1010.9 |
| 20260902012525 | 65 | 101 | 9.0 | 27.0 | 0.00 | 0.00 | 0.00 | 47 | 1010.8 |
| 20260902012506 | 65 | 120 | 15.0 | 25.0 | 0.00 | 0.00 | 0.00 | 47 | 1009.5 |
| 20260902012003 | 65 | 78 | 11.0 | 22.0 | 0.00 | 0.00 | 0.00 | 47 | 1009.4 |
| 20260902011801 | 65 | 105 | 8.0 | 27.0 | 0.00 | 0.00 | 0.00 | 47 | 1010.8 |
| 20260902011503 | 65 | 34 | 7.0 | 27.0 | 0.00 | 0.00 | 0.00 | 47 | 1009.5 |
| 20260902011302 | 65 | 103 | 10.0 | 27.0 | 0.00 | 0.00 | 0.00 | 47 | 1010.8 |
| 20260902011027 | 65 | 164 | 11.0 | 24.0 | 0.00 | 0.00 | 0.00 | 48 | 1010.8 |
| 20260902011004 | 65 | 102 | 11.0 | 27.0 | 0.00 | 0.00 | 0.00 | 47 | 1009.3 |
| 20260902010502 | 65 | 61 | 11.0 | 24.0 | 0.00 | 0.00 | 0.00 | 50 | 1009.4 |
| 20260902010302 | 66 | 87 | 12.0 | 29.0 | 0.00 | 0.00 | 0.00 | 47 | 1010.8 |
| 20260902010011 | 65 | 115 | 13.0 | 29.0 | 0.00 | 0.00 | 0.00 | 47 | 1009.4 |
| 20260902005801 | 66 | 104 | 12.0 | 29.0 | 0.00 | 0.00 | 0.00 | 49 | 1010.7 |
| 20260902005505 | 66 | 106 | 13.0 | 29.0 | 0.00 | 0.00 | 0.00 | 48 | 1009.4 |
| 20260902005305 | 66 | 124 | 12.0 | 26.0 | 0.00 | 0.00 | 0.00 | 48 | 1010.7 |
| 20260902005002 | 66 | 102 | 10.0 | 26.0 | 0.00 | 0.00 | 0.00 | 46 | 1009.4 |
| 20260902004801 | 66 | 77 | 10.0 | 26.0 | 0.00 | 0.00 | 0.00 | 47 | 1010.7 |
| 20260902004504 | 66 | 42 | 11.0 | 25.0 | 0.00 | 0.00 | 0.00 | 45 | 1009.5 |
| 20260902004302 | 67 | 118 | 10.0 | 21.0 | 0.00 | 0.00 | 0.00 | 46 | 1010.7 |
| 20260902004002 | 66 | 78 | 5.0 | 29.0 | 0.00 | 0.00 | 0.00 | 45 | 1009.4 |
| 20260902003802 | 67 | 75 | 12.0 | 29.0 | 0.00 | 0.00 | 0.00 | 48 | 1010.9 |
| 20260902003507 | 66 | 136 | 11.0 | 29.0 | 0.00 | 0.00 | 0.00 | 46 | 1009.5 |
| 20260902003301 | 67 | 111 | 11.0 | 29.0 | 0.00 | 0.00 | 0.00 | 47 | 1010.8 |
| 20260902003016 | 66 | 115 | 11.0 | 29.0 | 0.00 | 0.00 | 0.00 | 49 | 1009.6 |
| 20260902002754 | 67 | 107 | 11.0 | 25.0 | 0.00 | 0.00 | 0.00 | 44 | 1010.9 |
| 20260902002504 | 66 | 46 | 9.0 | 22.0 | 0.00 | 0.00 | 0.00 | 46 | 1009.6 |
| 20260902002247 | 67 | 82 | 12.0 | 26.0 | 0.00 | 0.00 | 0.00 | 47 | 1010.9 |
| 20260902002005 | 66 | 105 | 10.0 | 26.0 | 0.00 | 0.00 | 0.00 | 48 | 1009.6 |
| 20260902001744 | 67 | 113 | 11.0 | 26.0 | 0.00 | 0.00 | 0.00 | 46 | 1011.0 |
| 20260902001518 | 67 | 109 | 15.0 | 26.0 | 0.00 | 0.00 | 0.00 | 47 | 1009.7 |
| 20260902001459 | 67 | 110 | 11.0 | 24.0 | 0.00 | 0.00 | 0.00 | 46 | 1011.2 |
| 20260902001011 | 67 | 119 | 10.0 | 15.0 | 0.00 | 0.00 | 0.00 | 48 | 1009.9 |
| 20260902000742 | 67 | 98 | 10.0 | 15.0 | 0.00 | 0.00 | 0.00 | 50 | 1011.5 |
| 20260902000503 | 67 | 119 | 10.0 | 15.0 | 0.00 | 0.00 | 0.00 | 47 | 1010.0 |
| 20260902000024 | 67 | 83 | 7.0 | 17.0 | 0.00 | 0.00 | 0.00 | 49 | 1010.1 |
| 20260901235740 | 67 | 100 | 9.0 | 17.0 | 0.00 | 0.00 | 0.00 | 47 | 1011.7 |
| 20260901235503 | 67 | 44 | 8.0 | 17.0 | 0.00 | 0.00 | 0.00 | 48 | 1010.2 |
| 20260901235239 | 67 | 126 | 9.0 | 17.0 | 0.00 | 0.00 | 0.00 | 48 | 1011.5 |
| 20260901235002 | 67 | 122 | 5.0 | 17.0 | 0.00 | 0.00 | 0.00 | 45 | 1010.0 |
| 20260901234740 | 67 | 106 | 11.0 | 17.0 | 0.00 | 0.00 | 0.00 | 45 | 1011.6 |
| 20260901234505 | 67 | 109 | 8.0 | 17.0 | 0.00 | 0.00 | 0.00 | 47 | 1010.1 |
| 20260901234239 | 67 | 90 | 10.0 | 17.0 | 0.00 | 0.00 | 0.00 | 45 | 1011.6 |
| 20260901234004 | 67 | 119 | 12.0 | 17.0 | 0.00 | 0.00 | 0.00 | 44 | 1010.1 |
| 20260901233740 | 67 | 102 | 9.0 | 25.0 | 0.00 | 0.00 | 0.00 | 49 | 1011.3 |
| 20260901233503 | 67 | 69 | 8.0 | 25.0 | 0.00 | 0.00 | 0.00 | 46 | 1009.9 |
| 20260901233239 | 67 | 278 | 9.0 | 25.0 | 0.00 | 0.00 | 0.00 | 48 | 1011.2 |
| 20260901233008 | 67 | 107 | 12.0 | 25.0 | 0.00 | 0.00 | 0.00 | 47 | 1010.0 |
| 20260901232740 | 67 | 106 | 8.0 | 18.0 | 0.00 | 0.00 | 0.00 | 47 | 1011.3 |
| 20260901232507 | 67 | 44 | 8.0 | 18.0 | 0.00 | 0.00 | 0.00 | 48 | 1010.2 |
| 20260901232240 | 67 | 83 | 7.0 | 15.0 | 0.00 | 0.00 | 0.00 | 48 | 1011.5 |
| 20260901232006 | 67 | 103 | 7.0 | 15.0 | 0.00 | 0.00 | 0.00 | 45 | 1010.2 |
| 20260901232003 | 67 | 119 | 9.0 | 20.0 | 0.00 | 0.00 | 0.00 | 45 | 1011.6 |
| 20260901231509 | 67 | 96 | 5.0 | 24.0 | 0.00 | 0.00 | 0.00 | 46 | 1010.2 |
| 20260901231238 | 67 | 108 | 10.0 | 24.0 | 0.00 | 0.00 | 0.00 | 46 | 1011.7 |
| 20260901231008 | 67 | 107 | 11.0 | 24.0 | 0.00 | 0.00 | 0.00 | 46 | 1010.4 |
| 20260901230738 | 67 | 99 | 9.0 | 24.0 | 0.00 | 0.00 | 0.00 | 46 | 1011.8 |
| 20260901230507 | 67 | 84 | 7.0 | 18.0 | 0.00 | 0.00 | 0.00 | 46 | 1010.4 |
| 20260901230236 | 67 | 130 | 8.0 | 16.0 | 0.00 | 0.00 | 0.00 | 46 | 1011.8 |
| 20260901230038 | 67 | 103 | 9.0 | 15.0 | 0.00 | 0.00 | 0.00 | 46 | 1010.6 |
| 20260901225731 | 68 | 108 | 8.0 | 15.0 | 0.00 | 0.00 | 0.00 | 47 | 1012.0 |
| 20260901225503 | 67 | 96 | 8.0 | 15.0 | 0.00 | 0.00 | 0.00 | 44 | 1010.6 |
| 20260901225226 | 68 | 111 | 8.0 | 19.0 | 0.00 | 0.00 | 0.00 | 43 | 1012.0 |
| 20260901225007 | 67 | 115 | 9.0 | 19.0 | 0.00 | 0.00 | 0.00 | 44 | 1010.6 |
| 20260901224719 | 68 | 97 | 9.0 | 19.0 | 0.00 | 0.00 | 0.00 | 45 | 1012.0 |
| 20260901224525 | 67 | 81 | 4.0 | 20.0 | 0.00 | 0.00 | 0.00 | 44 | 1010.6 |
| 20260901224213 | 68 | 64 | 10.0 | 20.0 | 0.00 | 0.00 | 0.00 | 46 | 1012.0 |
| 20260901224013 | 68 | 95 | 9.0 | 20.0 | 0.00 | 0.00 | 0.00 | 42 | 1010.7 |
| 20260901223707 | 69 | 96 | 7.0 | 20.0 | 0.00 | 0.00 | 0.00 | 46 | 1011.9 |
| 20260901223503 | 68 | 78 | 7.0 | 14.0 | 0.00 | 0.00 | 0.00 | 44 | 1010.5 |
| 20260901223420 | 69 | 105 | 5.0 | 15.0 | 0.00 | 0.00 | 0.00 | 41 | 1012.1 |
| 20260901223007 | 69 | 104 | 5.0 | 15.0 | 0.00 | 0.00 | 0.00 | 40 | 1010.7 |
| 20260901222923 | 69 | 105 | 5.0 | 15.0 | 0.00 | 0.00 | 0.00 | 41 | 1012.0 |
| 20260901222509 | 69 | 146 | 6.0 | 15.0 | 0.00 | 0.00 | 0.00 | 40 | 1010.7 |
| 20260901222413 | 69 | 122 | 6.0 | 14.0 | 0.00 | 0.00 | 0.00 | 40 | 1011.9 |
| 20260901222007 | 69 | 111 | 6.0 | 14.0 | 0.00 | 0.00 | 0.00 | 40 | 1010.6 |
| 20260901221643 | 69 | 101 | 7.0 | 14.0 | 0.00 | 0.00 | 0.00 | 43 | 1011.8 |
| 20260901221523 | 69 | 98 | 8.0 | 15.0 | 0.00 | 0.00 | 0.00 | 43 | 1010.5 |
| 20260901221137 | 70 | 98 | 7.0 | 15.0 | 0.00 | 0.00 | 0.00 | 41 | 1011.8 |
| 20260901221006 | 70 | 76 | 5.0 | 15.0 | 0.00 | 0.00 | 0.00 | 42 | 1010.4 |
| 20260901220631 | 70 | 117 | 7.0 | 15.0 | 0.00 | 0.00 | 0.00 | 41 | 1011.9 |
| 20260901220507 | 70 | 111 | 7.0 | 14.0 | 0.00 | 0.00 | 0.00 | 40 | 1010.4 |
| 20260901220125 | 71 | 106 | 5.0 | 11.0 | 0.00 | 0.00 | 0.00 | 40 | 1011.7 |
| 20260901220013 | 70 | 93 | 4.0 | 13.0 | 0.00 | 0.00 | 0.00 | 41 | 1010.4 |
| 20260901215619 | 71 | 100 | 5.0 | 15.0 | 0.00 | 0.00 | 0.00 | 38 | 1011.8 |
| 20260901215507 | 71 | 157 | 3.0 | 15.0 | 0.00 | 0.00 | 0.00 | 38 | 1010.4 |
| 20260901215113 | 71 | 111 | 3.0 | 15.0 | 0.00 | 0.00 | 0.00 | 38 | 1011.8 |
| 20260901215010 | 71 | 107 | 7.0 | 15.0 | 0.00 | 0.00 | 0.00 | 36 | 1010.4 |
| 20260901214607 | 71 | 112 | 1.0 | 7.0 | 0.00 | 0.00 | 0.00 | 38 | 1011.8 |
| 20260901214507 | 71 | 160 | 1.0 | 4.0 | 0.00 | 0.00 | 0.00 | 37 | 1010.5 |
| 20260901214101 | 72 | 238 | 2.0 | 4.0 | 0.00 | 0.00 | 0.00 | 36 | 1012.0 |
| 20260901214009 | 71 | 237 | 1.0 | 4.0 | 0.00 | 0.00 | 0.00 | 35 | 1010.4 |
| 20260901213510 | 71 | 164 | 0.0 | 4.0 | 0.00 | 0.00 | 0.00 | 36 | 1010.6 |
| 20260901213049 | 72 | 67 | 2.0 | 4.0 | 0.00 | 0.00 | 0.00 | 39 | 1012.0 |
| 20260901213029 | 72 | 125 | 1.0 | 4.0 | 0.00 | 0.00 | 0.00 | 36 | 1010.7 |
| 20260901212807 | 72 | 174 | 2.0 | 7.0 | 0.00 | 0.00 | 0.00 | 36 | 1012.0 |
| 20260901212503 | 72 | 161 | 0.0 | 7.0 | 0.00 | 0.00 | 0.00 | 36 | 1010.8 |
| 20260901212037 | 72 | 173 | 2.0 | 7.0 | 0.00 | 0.00 | 0.00 | 37 | 1012.3 |
| 20260901212005 | 72 | 224 | 1.0 | 7.0 | 0.00 | 0.00 | 0.00 | 39 | 1010.9 |
| 20260901211531 | 72 | 217 | 2.0 | 5.0 | 0.00 | 0.00 | 0.00 | 37 | 1012.3 |
| 20260901211511 | 71 | 219 | 1.0 | 5.0 | 0.00 | 0.00 | 0.00 | 36 | 1010.9 |
| 20260901211024 | 72 | 234 | 1.0 | 5.0 | 0.00 | 0.00 | 0.00 | 36 | 1012.3 |
| 20260901211003 | 71 | 234 | 1.0 | 5.0 | 0.00 | 0.00 | 0.00 | 36 | 1010.8 |
| 20260901210519 | 71 | 240 | 1.0 | 4.0 | 0.00 | 0.00 | 0.00 | 39 | 1012.3 |
| 20260901210508 | 71 | 239 | 0.0 | 4.0 | 0.00 | 0.00 | 0.00 | 38 | 1010.8 |
| 20260901210025 | 71 | 174 | 0.0 | 4.0 | 0.00 | 0.00 | 0.00 | 38 | 1010.9 |
| 20260901210012 | 71 | 174 | 1.0 | 4.0 | 0.00 | 0.00 | 0.00 | 38 | 1012.1 |
| 20260901205507 | 71 | 198 | 1.0 | 6.0 | 0.00 | 0.00 | 0.00 | 37 | 1010.9 |
| 20260901205004 | 71 | 87 | 1.0 | 6.0 | 0.00 | 0.00 | 0.00 | 33 | 1010.9 |
| 20260901205001 | 72 | 87 | 1.0 | 6.0 | 0.00 | 0.00 | 0.00 | 34 | 1012.3 |
| 20260901204520 | 72 | 322 | 3.0 | 6.0 | 0.00 | 0.00 | 0.00 | 31 | 1010.9 |
| 20260901204455 | 72 | 319 | 1.0 | 6.0 | 0.00 | 0.00 | 0.00 | 31 | 1012.3 |
| 20260901204011 | 72 | 159 | 0.0 | 2.0 | 0.00 | 0.00 | 0.00 | 34 | 1010.9 |
| 20260901203511 | 72 | 194 | 0.0 | 3.0 | 0.00 | 0.00 | 0.00 | 38 | 1010.9 |
| 20260901203443 | 73 | 194 | 1.0 | 3.0 | 0.00 | 0.00 | 0.00 | 38 | 1012.4 |
| 20260901203024 | 72 | 194 | 0.0 | 4.0 | 0.00 | 0.00 | 0.00 | 35 | 1011.1 |
| 20260901202937 | 73 | 194 | 1.0 | 4.0 | 0.00 | 0.00 | 0.00 | 34 | 1012.4 |
| 20260901202511 | 73 | 192 | 0.0 | 4.0 | 0.00 | 0.00 | 0.00 | 31 | 1011.0 |
| 20260901202431 | 73 | 192 | 1.0 | 4.0 | 0.00 | 0.00 | 0.00 | 31 | 1012.4 |
| 20260901202017 | 73 | 99 | 1.0 | 4.0 | 0.00 | 0.00 | 0.00 | 35 | 1011.0 |
| 20260901201927 | 74 | 95 | 0.0 | 2.0 | 0.00 | 0.00 | 0.00 | 35 | 1012.4 |
| 20260901201510 | 73 | 267 | 0.0 | 3.0 | 0.00 | 0.00 | 0.00 | 36 | 1010.9 |
| 20260901201419 | 73 | 267 | 1.0 | 3.0 | 0.00 | 0.00 | 0.00 | 34 | 1012.1 |
| 20260901201009 | 73 | 267 | 0.0 | 3.0 | 0.00 | 0.00 | 0.00 | 30 | 1010.9 |
| 20260901200912 | 74 | 267 | 1.0 | 3.0 | 0.00 | 0.00 | 0.00 | 30 | 1012.1 |
| 20260901200511 | 73 | 207 | 0.0 | 6.0 | 0.00 | 0.00 | 0.00 | 30 | 1010.7 |
| 20260901200407 | 74 | 134 | 2.0 | 8.0 | 0.00 | 0.00 | 0.00 | 33 | 1012.0 |
| 20260901200011 | 74 | 134 | 0.0 | 8.0 | 0.00 | 0.00 | 0.00 | 30 | 1010.7 |
| 20260901195900 | 74 | 134 | 2.0 | 8.0 | 0.00 | 0.00 | 0.00 | 31 | 1012.0 |
| 20260901195623 | 74 | 113 | 2.0 | 8.0 | 0.00 | 0.00 | 0.00 | 33 | 1012.1 |
| 20260901195506 | 74 | 113 | 4.0 | 8.0 | 0.00 | 0.00 | 0.00 | 33 | 1010.8 |
| 20260901195010 | 75 | 230 | 2.0 | 8.0 | 0.00 | 0.00 | 0.00 | 33 | 1011.0 |
| 20260901194849 | 76 | 144 | 3.0 | 10.0 | 0.00 | 0.00 | 0.00 | 35 | 1012.4 |
| 20260901194520 | 75 | 112 | 2.0 | 10.0 | 0.00 | 0.00 | 0.00 | 33 | 1011.0 |
| 20260901194349 | 76 | 114 | 4.0 | 10.0 | 0.00 | 0.00 | 0.00 | 31 | 1012.4 |
| 20260901194012 | 75 | 90 | 5.0 | 10.0 | 0.00 | 0.00 | 0.00 | 33 | 1011.1 |
| 20260901193849 | 75 | 123 | 2.0 | 9.0 | 0.00 | 0.00 | 0.00 | 34 | 1012.4 |
| 20260901193513 | 74 | 105 | 4.0 | 9.0 | 0.00 | 0.00 | 0.00 | 33 | 1011.2 |
| 20260901193349 | 74 | 97 | 3.0 | 9.0 | 0.00 | 0.00 | 0.00 | 33 | 1012.6 |
| 20260901193024 | 74 | 321 | 0.0 | 13.0 | 0.00 | 0.00 | 0.00 | 32 | 1011.4 |
| 20260901192850 | 74 | 320 | 5.0 | 13.0 | 0.00 | 0.00 | 0.00 | 32 | 1012.7 |
| 20260901192515 | 74 | 113 | 4.0 | 13.0 | 0.00 | 0.00 | 0.00 | 36 | 1011.4 |
| 20260901192347 | 74 | 101 | 5.0 | 13.0 | 0.00 | 0.00 | 0.00 | 33 | 1012.8 |
| 20260901192101 | 74 | 109 | 2.0 | 8.0 | 0.00 | 0.00 | 0.00 | 37 | 1012.9 |
| 20260901192006 | 74 | 116 | 3.0 | 10.0 | 0.00 | 0.00 | 0.00 | 35 | 1011.5 |